{"data":{"norad_id":53835,"intl_designator":"2022-114T","name":"STARLINK-4783","alt_names":[],"object_type":"PAYLOAD","status":"ACTIVE","operator":null,"country":"US","launch_date":"2022-09-19","launch_site_code":"AFETR","launch_vehicle":null,"mission":null,"orbit_class":"UNKNOWN","rcs_meters":null,"size_class":null,"mass_kg":null,"dimensions":null,"purposes":["comms"],"wikipedia_slug":null,"has_3d_model":false,"image_url":null,"decayed_at":null,"tle_current":{"epoch":"2026-09-19T10:29:14.022240Z","epoch_age_seconds":175914,"freshness":"STALE","line1":"1 53835U 22114T   26262.43696785 -.00000954  00000+0 -41841-4 0  9991","line2":"2 53835  53.1618 153.4820 0001263  93.8078 266.3058 15.08828860222080","mean_motion":15.0882886,"eccentricity":0.0001263,"inclination_deg":53.1618,"raan_deg":153.482,"arg_perigee_deg":93.8078,"mean_anomaly_deg":266.3058,"bstar":-4.1841e-5,"rev_number":22208,"period_min":95.438259313253,"perigee_km":538.90370710325,"apogee_km":540.65117229071,"semimajor_km":6917.914439697,"source":"CELESTRAK","updated_at":"2026-09-21T09:00:33.000951Z"}}}